This demonstration page uses our WeatherBlox Daily Observations layout. Learn more.

40.92945, -100.16068

Hourly Observations for January 11, 2019

Temp ( °F °C ) Dew Point ( °F °C ) Humidity (%) Winds ( mph kmh ) Pressure ( in mb ) Visibility ( mi km ) Precip ( " mm )
12:15 am 00:15 Clear 28 -2.4 26 -3.4 93 93 W 5 7 30.18 1022 10 16.09344 0 0
12:35 am 00:35 Clear 28 -2 26 -3.1 92 92 W 5 7 30.12 1020 10 16.09344 0 0
12:55 am 00:55 Clear 29 -1.7 27 -3 91 91 WSW 3 6 30.15 1021 10 16.09344 0 0
1:15 am 01:15 Clear 29 -1.7 27 -3 91 91 Calm 30.12 1020 10 16.09344 0 0
1:35 am 01:35 Clear 29 -1.7 27 -3 91 91 Calm 30.15 1021 10 16.09344 0 0
1:55 am 01:55 Clear 29 -1.5 27 -2.7 92 92 Calm 30.12 1020 10 16.09344 0 0
2:15 am 02:15 Clear 29 -1.6 27 -2.8 92 92 Calm 30.12 1020 10 16.09344 0 0
2:35 am 02:35 Clear 30 -1.3 28 -2.5 92 92 Calm 30.15 1021 10 16.09344 0 0
2:55 am 02:55 Clear 30 -1.3 27 -2.6 91 91 W 3 6 30.12 1020 10 16.09344 0 0
3:15 am 03:15 Clear 30 -1 28 -2.3 91 91 WNW 5 7 30.15 1021 10 16.09344 0 0
3:35 am 03:35 Clear 31 -0.7 28 -2.1 90 90 NW 3 6 30.12 1020 10 16.09344 0 0
3:55 am 03:55 Clear 30 -1 28 -2.3 91 91 WNW 5 7 30.12 1020 10 16.09344 0 0
4:15 am 04:15 Clear 31 -0.7 28 -2.1 90 90 NNW 8 13 30.12 1020 10 16.09344 0 0
4:35 am 04:35 Clear 31 -0.6 28 -2 90 90 NNW 8 13 30.12 1020 10 16.09344 0 0
4:55 am 04:55 Clear 31 -0.5 28 -2 90 90 N 5 7 30.12 1020 10 16.09344 0 0
5:15 am 05:15 Clear 31 -0.6 28 -2.1 90 90 NNW 3 6 30.12 1020 10 16.09344 0 0
5:35 am 05:35 Partly Cloudy 31 -0.6 28 -2.1 90 90 Calm 30.12 1020 10 16.09344 0 0
5:55 am 05:55 Partly Cloudy 31 -0.8 28 -2.3 90 90 Calm 30.12 1020 10 16.09344 0 0
6:15 am 06:15 Clear 32 -0.1 28 -2.1 87 87 Calm 30.12 1020 10 16.09344 0 0
6:35 am 06:35 Partly Cloudy 32 -0.1 29 -1.8 88 88 NE 5 7 30.12 1020 10 16.09344 0 0
6:55 am 06:55 Partly Cloudy 32 0 28 -2 87 87 Calm 30.12 1020 10 16.09344 0 0
7:15 am 07:15 Clear 32 -0.2 28 -2 88 88 Calm 30.12 1020 10 16.09344 0 0
7:35 am 07:35 Clear 32 0 29 -1.9 87 87 NNE 3 6 30.12 1020 10 16.09344 0 0
7:55 am 07:55 Clear 32 0 29 -1.9 87 87 NE 5 7 30.12 1020 10 16.09344 0 0
8:15 am 08:15 Partly Cloudy 32 0.1 29 -1.7 88 88 N 6 9 30.12 1020 10 16.09344 0 0
8:35 am 08:35 Cloudy 32 0 29 -1.6 89 89 NNW 3 6 30.12 1020 10 16.09344 0 0
8:55 am 08:55 Cloudy 32 0.1 29 -1.5 89 89 N 5 7 30.15 1021 10 16.09344 0 0
9:15 am 09:15 Cloudy 32 0.2 30 -1.3 90 90 Calm 30.15 1021 10 16.09344 0 0
9:35 am 09:35 Cloudy 33 0.4 30 -1.1 90 90 N 6 9 30.15 1021 10 16.09344 0 0
9:55 am 09:55 Cloudy 33 0.7 30 -1 89 89 N 8 13 30.15 1021 10 16.09344 0 0
10:15 am 10:15 Cloudy 34 1 30 -1 87 87 N 9 15 30.12 1020 10 16.09344 0 0
10:35 am 10:35 Cloudy 34 1.2 30 -1 85 85 NNE 8 13 30.12 1020 10 16.09344 0 0
10:55 am 10:55 Cloudy 35 1.5 30 -1 84 84 NE 5 7 30.12 1020 10 16.09344 0 0
11:15 am 11:15 Cloudy 35 1.5 30 -1 84 84 Calm 30.12 1020 10 16.09344 0 0
11:35 am 11:35 Cloudy 35 1.7 30 -1 82 82 NE 3 6 30.12 1020 10 16.09344 0 0
11:55 am 11:55 Cloudy 35 1.8 30 -1 82 82 NNE 5 7 30.12 1020 10 16.09344 0 0
12:15 pm 12:15 Cloudy 36 2.1 30 -1.1 80 80 NE 7 11 30.12 1020 10 16.09344 0 0
12:35 pm 12:35 Cloudy 36 2.2 30 -1 80 80 NNE 8 13 30.12 1020 10 16.09344 0 0
12:55 pm 12:55 Cloudy 36 2.4 30 -1 79 79 NNE 8 13 30.09 1019 10 16.09344 0 0
1:15 pm 13:15 Cloudy 37 2.6 31 -0.8 79 79 NNE 8 13 30.09 1019 10 16.09344 0 0
1:35 pm 13:35 Cloudy 37 2.7 30 -1 77 77 NNE 8 13 30.09 1019 10 16.09344 0 0
1:55 pm 13:55 Cloudy 37 2.8 30 -1 76 76 NNE 9 15 30.09 1019 10 16.09344 0 0
2:15 pm 14:15 Cloudy 37 3 30 -1 75 75 NNE 8 13 30.09 1019 10 16.09344 0 0
2:35 pm 14:35 Cloudy 37 3 31 -0.7 77 77 N 7 11 30.12 1020 10 16.09344 0 0
2:55 pm 14:55 Cloudy 37 3 31 -0.6 77 77 N 7 11 30.12 1020 10 16.09344 0 0
3:15 pm 15:15 Cloudy 37 3 31 -0.8 76 76 N 9 15 30.12 1020 10 16.09344 0 0
3:35 pm 15:35 Cloudy 37 3 31 -0.7 77 77 NNE 12 19 30.12 1020 10 16.09344 0 0
3:55 pm 15:55 Cloudy 37 2.7 30 -0.9 77 77 NNE 8 13 30.12 1020 10 16.09344 0 0
4:15 pm 16:15 Cloudy 37 2.6 31 -0.7 79 79 NNE 9 15 30.12 1020 10 16.09344 0 0
4:35 pm 16:35 Cloudy 37 2.6 31 -0.6 80 80 N 8 13 30.12 1020 10 16.09344 0 0
4:55 pm 16:55 Cloudy 37 2.6 31 -0.7 79 79 N 9 15 30.12 1020 10 16.09344 0 0
5:15 pm 17:15 Cloudy 36 2.3 31 -0.7 81 81 N 8 13 30.12 1020 10 16.09344 0 0
5:35 pm 17:35 Cloudy 36 2.2 31 -0.7 81 81 N 6 9 30.12 1020 10 16.09344 0 0
5:55 pm 17:55 Cloudy 36 2.2 31 -0.6 82 82 N 8 13 30.12 1020 10 16.09344 0 0
6:15 pm 18:15 Cloudy 36 2.2 31 -0.7 81 81 N 8 13 30.12 1020 10 16.09344 0 0
6:35 pm 18:35 Cloudy 36 2.3 31 -0.8 80 80 NNE 9 15 30.12 1020 10 16.09344 0 0
6:55 pm 18:55 Cloudy 36 2.2 31 -0.8 81 81 NNE 8 13 30.12 1020 10 16.09344 0 0
7:15 pm 19:15 Cloudy 36 2.2 30 -0.9 80 80 NNE 8 13 30.12 1020 10 16.09344 0 0
7:35 pm 19:35 Cloudy 36 2.2 31 -0.8 81 81 NNE 9 15 30.12 1020 10 16.09344 0 0
7:55 pm 19:55 Cloudy 36 2.1 30 -1 80 80 NNE 8 13 30.12 1020 10 16.09344 0 0
8:15 pm 20:15 Cloudy 36 2 30 -1 81 81 NNE 9 15 30.12 1020 10 16.09344 0 0
8:35 pm 20:35 Cloudy 36 2 30 -1.2 80 80 NNE 10 17 30.12 1020 10 16.09344 0 0
8:55 pm 20:55 Cloudy 35 1.8 29 -1.4 80 80 NNE 8 13 30.12 1020 10 16.09344 0 0
9:15 pm 21:15 Cloudy 35 1.8 29 -1.5 79 79 NNE 10 17 30.15 1021 10 16.09344 0 0
9:35 pm 21:35 Cloudy 35 1.7 29 -1.5 80 80 NNE 7 11 30.15 1021 10 16.09344 0 0
9:55 pm 21:55 Cloudy 35 1.5 29 -1.5 81 81 NNE 9 15 30.15 1021 10 16.09344 0 0
10:15 pm 22:15 Cloudy 35 1.5 29 -1.7 80 80 NNE 8 13 30.15 1021 10 16.09344 0 0
10:35 pm 22:35 Cloudy 34 1.3 29 -1.8 80 80 NNE 7 11 30.21 1023 10 16.09344 0 0
10:55 pm 22:55 Cloudy 34 1.1 28 -2 80 80 NE 9 15 30.21 1023 10 16.09344 0 0
11:15 pm 23:15 Cloudy 34 1 28 -2 81 81 NE 12 19 30.21 1023 10 16.09344 0 0
11:35 pm 23:35 Cloudy 33 0.8 28 -2 82 82 NNE 9 15 30.21 1023 10 16.09344 0 0
11:55 pm 23:55 Cloudy 33 0.6 28 -2.1 82 82 NNE 10 17 30.21 1023 10 16.09344 0 0

Powered by AerisWeather